{"data":{"norad_id":60284,"epoch":"2026-05-25T00:15:52.846848Z","epoch_age_seconds":84749,"freshness":"FRESH","line1":"1 60284U 24132G   26145.01102832  .00000613  00000+0  32829-4 0  9994","line2":"2 60284  53.1609  45.2913 0001301  80.8599 279.2549 15.30180857103420","mean_motion":15.30180857,"eccentricity":0.0001301,"inclination_deg":53.1609,"raan_deg":45.2913,"arg_perigee_deg":80.8599,"mean_anomaly_deg":279.2549,"bstar":3.2829e-5,"rev_number":10342,"period_min":94.106522991223,"perigee_km":474.38059902215,"apogee_km":476.16385610316,"semimajor_km":6853.4092275627,"source":"CELESTRAK","updated_at":"2026-05-25T13:38:19.204748Z"}}